Regional Weather Roundup
Issued by NWS

Home | Current Version | Previous Version | Graphics & Text | Print | Product List | Glossary On
Versions: 1 2 3 4 5 6 7 8 9 10 11 12 13 14 15 16 17 18 19 20 21 22 23 24 25 26 27 28 29 30 31 32 33 34 35 36 37 38 39 40 41 42 43 44 45 46 47 48 49 50
000
ASUS43 KMKX 072021
RWRWI

WISCONSIN REGIONAL WEATHER ROUNDUP
NATIONAL WEATHER SERVICE MILWAUKEE/SULLIVAN WI
200 PM CST WED DEC 07 2016

NOTE: "FAIR" INDICATES FEW OR NO CLOUDS BELOW 12,000 FEET WITH NO
SIGNIFICANT WEATHER AND/OR OBSTRUCTIONS TO VISIBILITY.

WIZ001-002-006>008-014>016-023>028-072100-
NORTHWEST WISCONSIN

CITY           SKY/WX    TMP DP  RH WIND       PRES   REMARKS
SUPERIOR ARPT  CLOUDY    22  11  64 W20G25    29.88R WCI   7
ASHLAND        FLURRIES  20  12  71 SW23G30   29.83S WCI   3
HAYWARD        FLURRIES  19   9  65 W13G25    29.87R WCI   6
SIREN          CLOUDY    21  10  64 W16G25    29.94R WCI   7
CUMBERLAND     CLOUDY    19  10  68 W21G28    29.92R WCI   3
RICE LAKE      CLOUDY    21  12  69 SW20G26   29.94S WCI   5
CHETEK         PTSUNNY   20  11  67 W12G22    29.94S WCI   9
LADYSMITH      LGT SNOW  21  13  72 W21       29.91R WCI   5
EAU CLAIRE     CLOUDY    20  12  71 SW17G26   29.98R WCI   5
MENOMONIE      CLOUDY    22  14  70 SW16G23   29.99S WCI   8
NEW RICHMOND   PTSUNNY   21  10  62 W23       29.98S WCI   5
OSCEOLA        PTSUNNY   22  10  60 W22       30.03R WCI   6
$$

WIZ003>005-009-010-017-018-072100-
NORTH CENTRAL WISCONSIN

CITY           SKY/WX    TMP DP  RH WIND       PRES   REMARKS
MANITOWISH WTR LGT SNOW  17  11  78 W17G26    29.78R WCI   1
ARBOR VITAE    FLURRIES  19  12  73 W18G26    29.79R WCI   4
WOODRUFF       FLURRIES  19  12  73 W18G26    29.79R WCI   4
RHINELANDER    LGT SNOW  19  14  81 W18G26    29.81R WCI   4
EAGLE RIVER    FLURRIES  19  10  70 W13G25    29.77S WCI   5
LAND O LAKES   LGT SNOW  19  12  75 SW12G21   29.77S WCI   6
PHILLIPS       CLOUDY    19  11  73 W13G23    29.83R WCI   6
TOMAHAWK       LGT SNOW  19  12  76 W10G18    29.84S WCI   7
MEDFORD        LGT SNOW  17  11  78 W15G22    29.88S WCI   3
MERRILL        LGT SNOW  19  13  76 W17G23    29.88S WCI   4
$$

WIZ029-030-035-036-043>047-072100-
CENTRAL WISCONSIN

CITY           SKY/WX    TMP DP  RH WIND       PRES   REMARKS
WAUSAU         FLURRIES  20  13  74 W16G26    29.89S WCI   6
MOSINEE        FLURRIES  19  14  79 W20G28    29.91S WCI   4
MARSHFIELD     CLOUDY    20  12  71 W14G26    29.92R WCI   7
STEVENS POINT  CLOUDY    21  12  68 W13G25    29.93S WCI   8
WAUPACA        PTSUNNY   27  16  64 W21G26    29.94F WCI  13
WAUTOMA        FLURRIES  22  14  71 W20G26    29.97S WCI   7
WISC RAPIDS    CLOUDY    22  14  71 W13G22    29.96S WCI  10
CAMP DOUGLAS   PTSUNNY   21  14  73 W16       30.00S WCI   7
$$

WIZ011>013-019>022-031-037>040-048>050-072100-
NORTHEAST WISCONSIN

CITY           SKY/WX    TMP DP  RH WIND       PRES   REMARKS
ANTIGO         FLURRIES  18  12  77 W21G28    29.85R WCI   1
SHAWANO        CLOUDY    28  15  57 W16G23    29.90S WCI  16
OCONTO         PTSUNNY   26  13  57 W17G29    29.88F WCI  14
STURGEON BAY   PTSUNNY   26  16  65 W22G29    29.86F WCI  12
GREEN BAY      PTSUNNY   28  17  63 W16G29    29.92R WCI  16
MANITOWOC      CLOUDY    25  17  72 W14G22    29.93S WCI  13
APPLETON       PTSUNNY   25  14  63 W21       29.92S WCI  10
CLINTONVILLE   PTSUNNY   27  14  59 W14       29.91S WCI  15
OSHKOSH        PTSUNNY   23  14  68 W12G21    29.95S WCI  12
$$

WIZ032>034-041-042-053>061-072100-
SOUTHWEST WISCONSIN

CITY           SKY/WX    TMP DP  RH WIND       PRES   REMARKS
LA CROSSE      CLOUDY    23  12  62 W13G22    30.07S WCI  11
SPARTA         CLOUDY    22  13  71 W12G23    30.03S WCI  10
VIROQUA        CLOUDY    18  11  74 W20G26    30.03R WCI   1
BOSCOBEL       MOSUNNY   22  11  62 W10       30.09S WCI  11
PRAIRIE DU CHI CLOUDY    21  11  65 W14G22    30.11S WCI   8
PLATTEVILLE    CLOUDY    21  15  77 W17G24    30.08S WCI   6
$$

WIZ056-057-062-063-064-067-068-072100-
SOUTH CENTRAL WISCONSIN

CITY           SKY/WX    TMP DP  RH WIND       PRES   REMARKS
REEDSBURG      PTSUNNY   21  12  69 W15       30.02S WCI   7
BARABOO/DELLS  PTSUNNY   21  12  67 W14       30.01S WCI   8
LONE ROCK      MOSUNNY   22  12  65 W14       30.06F WCI   9
MINERAL POINT  CLOUDY    21  14  73 W16G22    30.04S WCI   7
MADISON        CLOUDY    22  13  68 W8        30.01F WCI  12
MIDDLETON      NOT AVBL
WATERTOWN      CLOUDY    22  16  75 SW9       29.99F WCI  12
MONROE         CLOUDY    21  14  73 W18       30.05R WCI   6
JANESVILLE     PTSUNNY   25  18  74 W13G18    30.05F WCI  13
$$

WIZ051-052-058>065-066-070>072-072100-
SOUTHEAST WISCONSIN

CITY           SKY/WX    TMP DP  RH WIND       PRES   REMARKS
MILWAUKEE      PTSUNNY   28  16  60 W13G20    30.01R WCI  17
WAUKESHA       MOSUNNY   23  14  68 W15       30.01S WCI  10
MILWAUKEE/TIMM SUNNY     27  14  59 W15G22    30.00F WCI  15
RACINE         CLOUDY    28  17  63 W15G22    30.03S WCI  16
BURLINGTON     CLOUDY    26  18  72 W15G21    30.03F WCI  13
KENOSHA        PTSUNNY   27  18  69 SW18      30.02F WCI  14
FOND DU LAC    CLOUDY    23  13  65 W9G20     29.97F WCI  13
SHEBOYGAN      CLOUDY    24  15  68 W20       29.95S WCI  10
WEST BEND      NOT AVBL
JUNEAU         CLOUDY    21  14  74 SW18G25   30.00S WCI   6
$$

LSZ147-162-072100-
LAKE SUPERIOR

STATION/POSITION TIME  TEMP    WIND        PRES    WAVE
                       AIR SEA DIR/SP/G            HT/PER
                 (UTC) (F)     (DEG/KT/KT) (MB)    (FT/S)
DEVILS ISLAND    2000   25     250/ 33/ 41 1008.7R
PORT WING        1930   21     230/ 14/ 20 1010.8R
SAXON HARBOR     1940   21     230/ 12/ 18 1010.2R
$$

LMZ867-665-643>646-072100-
LAKE MICHIGAN

STATION/POSITION TIME  TEMP    WIND        PRES    WAVE
                       AIR SEA DIR/SP/G            HT/PER
                 (UTC) (F)     (DEG/KT/KT) (MB)    (FT/S)
CHAMBERS ISLAND  1940   26     240/ 14/ 22 1010.2R
NORTHPORT PIER   1946   27     240/  9/ 20 1010.5R
SISTER BAY       1953   29     280/ 23/ 30   N/A
KEWAUNEE LAKESHO 1954   26     270/ 19/ 24 1012.0F
SHEBOYGAN LAKESH 2000   24     270/ 14/ 16 1015.1R
PORT WASHINGTON  1930   26     260/ 15/ 21 1015.9S
MILWAUKEE LAKESH 2000   26     250/ 15/ 16   N/A
KENOSHA   LAKESH 2000   27     250/ 14/ 20 1016.9
$$

TC  - TEMPERATURE IN CELSIUS
VSB - VISIBILITY IN STATUTE MILES
WCI - WIND CHILL INDEX
HX  - HEAT INDEX




USA.gov is the U.S. government's official web portal to all federal, state and local government web resources and services.